• Processing (Info)

  • MPEC 2022-C94 : 2022 CO1

    The following Minor Planet Electronic Circular may be linked-to from your own Web pages, but must not otherwise be redistributed electronically.

    A form allowing access to any MPEC is at the bottom of this page.


    Read MPEC 2022-C93 Read MPEC 2022-C95


    M.P.E.C. 2022-C94                              Issued 2022 February 6, 02:14 UT
    
         The Minor Planet Electronic Circulars contain information on unusual
             minor planets and routine data on comets.  They are published
        on behalf of Division F of the International Astronomical Union by the
              Minor Planet Center, Smithsonian Astrophysical Observatory,
                              Cambridge, MA 02138, U.S.A.
    
                 Prepared using the Tamkin Foundation Computer Network
    
                                  MPC@CFA.HARVARD.EDU
                URL https://www.minorplanetcenter.net/    ISSN 1523-6714
    
                                    2022 CO1                                 
    
    
    Observations:
         K22C01O*KC2022 02 05.02616 07 45 32.62 -04 17 36.9                VEC094W94
         K22C01O KC2022 02 05.03182 07 45 35.36 -04 17 22.0          17.5 GVEC094W94
         K22C01O KC2022 02 05.03755 07 45 38.18 -04 17 05.4                VEC094W94
         K22C01O KC2022 02 05.23938 07 47 13.13 -04 07 58.5          19.8 GVEC094W95
         K22C01O KC2022 02 05.24456 07 47 15.55 -04 07 44.6                VEC094W95
         K22C01O KC2022 02 05.24974 07 47 17.99 -04 07 30.6          19.2 GVEC094W95
         K22C01O KC2022 02 05.28258 07 47 33.32 -04 06 02.6          18.2 GVEC094W95
         K22C01O KC2022 02 05.28775 07 47 35.76 -04 05 48.7          18.5 GVEC094W95
         K22C01O KC2022 02 05.29292 07 47 38.18 -04 05 34.8          19.2 GVEC094W95
         K22C01O KC2022 02 05.73217 07 51 10.27 -03 47 50.4          19.7 VqEC094C97
         K22C01O KC2022 02 05.74686 07 51 16.56 -03 47 13.9          19.7 VqEC094C97
         K22C01O KC2022 02 05.79289 07 51 38.03 -03 45 45.2          19.6 GXEC094G02
         K22C01O KC2022 02 05.79931 07 51 40.83 -03 45 29.5          19.7 GXEC094G02
         K22C01O KC2022 02 05.80601 07 51 43.67 -03 45 13.3          19.6 GXEC094G02
         K22C01O KC2022 02 05.82270 07 51 51.44 -03 44 27.9          18.9 GVEC094K83
         K22C01O KC2022 02 05.83155 07 51 55.25 -03 44 07.9          19.6 GVEC094587
         K22C01O KC2022 02 05.83302 07 51 55.84 -03 44 02.0          19.3 GVEC094K83
         K22C01O KC2022 02 05.83358 07 51 56.11 -03 44 03.1          19.5 GVEC094587
         K22C01O KC2022 02 05.83543 07 51 56.85 -03 43 57.6          19.6 GVEC094587
         K22C01O KC2022 02 05.83889107 51 58.96 -03 43 45.9          19.0 GXEC094958
         K22C01O KC2022 02 05.83951207 51 58.38 -03 43 47.4          20.0 GVEC094L01
         K22C01O KC2022 02 05.84167807 51 59.33 -03 43 41.9          20.0 GVEC094L01
         K22C01O KC2022 02 05.84233 07 52 00.08 -03 43 38.1          19.6 GVEC094M10
         K22C01O KC2022 02 05.84387507 52 00.26 -03 43 37.0          20.2 GVEC094L01
         K22C01O KC2022 02 05.84611107 52 01.22 -03 43 31.8          20.2 GVEC094L01
         K22C01O KC2022 02 05.84638707 52 02.20 -03 43 28.0          19.2 GXEC094958
         K22C01O KC2022 02 05.84874407 52 02.31 -03 43 24.8          20.0 GVEC094L01
         K22C01O KC2022 02 05.85370307 52 05.27 -03 43 10.3          19.6 GXEC094958
         K22C01O KC2022 02 05.85555 07 52 05.70 -03 43 06.7          20.2 GVEC094M10
         K22C01O KC2022 02 05.85826807 52 06.57 -03 43 00.3          19.6 GVEC094104
         K22C01O KC2022 02 05.85954 07 52 07.21 -03 42 56.4          19.5 GXEC094K78
         K22C01O KC2022 02 05.86267707 52 09.03 -03 42 50.1                XEC094I93
         K22C01O KC2022 02 05.86597407 52 09.83 -03 42 42.4          19.3 GVEC094104
         K22C01O KC2022 02 05.86677907 52 10.76 -03 42 39.7                XEC094I93
         K22C01O KC2022 02 05.86729 07 52 10.57 -03 42 38.4          19.4 GVEC094M10
         K22C01O KC2022 02 05.86945 07 52 11.31 -03 42 33.4          19.5 GXEC094K78
         K22C01O KC2022 02 05.87123307 52 12.60 -03 42 29.1          19.9 GXEC094I93
         K22C01O KC2022 02 05.88785107 52 18.95 -03 41 48.9          19.7 GVEC094104
         K22C01O KC2022 02 05.93585 07 52 39.11 -03 39 53.8          19.7 GVEC094204
         K22C01O KC2022 02 05.94851 07 52 44.38 -03 39 22.9                VEC094204
    
    Observer details:
    104 San Marcello Pistoiese.  Observers P. Bacci, M. Maestripieri, M. D.
        Grazia, M. Michela, S. Mangano.  Measurers P. Bacci, L. Tesi, G. Fagioli.
        0.60-m reflector + CCD.
    204 Schiaparelli Observatory.  Observers L. Buzzi, G. Galli.  0.84-m f/3.5
        reflector + CCD.
    587 Sormano.  Observer E. Colzani.  Measurer F. Manca.  0.5-m f/6.8 reflector
        + CCD.
    958 Observatoire de Dax.  Observer P. Dupouy.  0.43-m f/2.7 reflector + CCD.
    C97 Al-Fulaij Observatory, Oman.  Observer A. Al-Haji.
    G02 KYSUCE Observatory, Kysucke Nove Mesto.  Observer M. Urbanik.
    I93 St Pardon de Conques.  Observer F. Losse.  0.40-m f/3.7 reflector + CCD.
    K78 iota Scorpii Observatory, La Spezia.  Observers G. Scarfi, L. Sannino.
        0.40-m f/6 reflector + CCD.
    K83 Beppe Forti Astronomical Observatory, Montelupo.  Observers M. Tombelli,
        A. Mazzanti, E. Venticinque, M. Iozzi, G. Interrante, T. Bitossi.
        Measurers M. Tombelli, F. Bernardi, L. Bernardi.  0.40-m f/8 Ritchey-
        Chretien + CCD.
    L01 Visnjan Observatory, Tican.  Observer K. Korlevic.  1.0-m f/2.9 reflector
        + CCD.
    M10 CPF Observatory, St Vallier de Thiey.  Observer C. Pin-ferrier.  0.25-m
        f/5 reflector + CCD.
    W94 MAP, San Pedro de Atacama.  Observers A. Maury, G. Attard.  Measurers A.
        Maury, G. Attard, D. Parrott.  0.28-m f/2.2 Schmidt + CCD.
    W95 Observatorio Panameno, San Pedro de Atacama.  Observers A. Maury, G.
        Attard, J. Fabrega.  Measurers A. Maury, G. Attard, D. Parrott.  0.40-m
        f/3.8 reflector + CCD.
    
    Orbital elements:
    2022 CO1                                                 Earth MOID = 0.0233 AU
    Epoch 2022 Jan. 21.0 TT = JDT 2459600.5                 Veres                   
    M   7.19707              (2000.0)            P               Q                  
    n   0.22291581     Peri.  135.87365     +0.41857822     -0.90350819             
    a   2.6938628      Node   289.18402     +0.80393315     +0.41575188             
    e   0.7071398      Incl.    5.59042     +0.42247338     +0.10403527             
    P   4.42           H   23.12          G   0.15           U   9                  
    Residuals in seconds of arc
    220205 W94  0.4-  0.3+    220205 K83  0.1-  0.6-    220205 M10  1.0+  0.2+
    220205 W94  0.4-  0.3-    220205 587  0.2+  0.4-    220205 104  0.4+  0.4+
    220205 W94  0.3+  0.7+    220205 K83  0.0   0.0     220205 K78  1.1+  1.2+
    220205 W95  0.3+  0.0     220205 587  0.1+  0.5-    220205 I93  0.1+  0.0
    220205 W95  0.4+  0.0     220205 587  0.7-  0.4+    220205 104  0.6+  0.5-
    220205 W95  0.7+  0.1+    220205 958  0.3-  1.3+    220205 I93  0.0   0.4+
    220205 W95  0.2+  0.1-    220205 L01  0.3-  0.3+    220205 M10  0.3-  0.1-
    220205 W95  0.4+  0.1-    220205 L01  0.2+  0.5+    220205 K78  0.0   0.1+
    220205 W95  0.3+  0.0     220205 M10  0.7+  1.0+    220205 I93  0.6-  0.2+
    220205 C97  0.1-  0.1-    220205 L01  0.1+  0.0     220205 104  0.4-  0.2-
    220205 C97  0.9+  0.0     220205 L01  0.3+  0.2-    220205 204  0.1-  0.0
    220205 G02  0.3-  0.3+    220205 958  0.4+  0.9+    220205 204  0.0   0.3+
    220205 G02  0.2+  0.3+    220205 L01  0.0   0.3+
    220205 G02  0.4-  0.0     220205 958  0.3-  0.8+
    
    Ephemeris:
    2022 CO1                 a,e,i = 2.69, 0.71, 6                   q = 0.7889
    Date    TT    R. A. (2000) Decl.     Delta      r    Elong.  Phase     V
    2022 01 07    21 52 28.9 -07 45 20   0.2025  0.8424    41.5   129.3    24.9
    ...
    2022 01 22    00 03 53.7 -15 34 08   0.06111 0.9498    54.3   122.7    22.0
    ...
    2022 01 30    06 04 21.0 -12 19 26   0.05559 1.0213   129.5    48.1    18.7
    ...
    2022 02 05    07 45 15.6 -04 19 20   0.1057  1.0789   150.2    27.0    19.6
    2022 02 06    07 53 06.9 -03 36 23   0.1152  1.0887   151.6    25.6    19.8
    2022 02 07    07 59 48.5 -02 59 08   0.1249  1.0986   152.7    24.3    19.9
    ...
    2022 02 13    08 25 37.1 -00 28 17   0.1856  1.1591   155.8    20.4    20.8
    ...
    2022 02 21    08 43 16.1 +01 23 13   0.2728  1.2416   155.1    19.6    21.8
    ...
    2022 03 08    09 02 29.3 +03 17 52   0.4558  1.3986   147.5    22.4    23.2
    
    M. P. C. Staff               (C) Copyright 2022 MPC           M.P.E.C. 2022-C94
    


    Read MPEC 2022-C93 Read MPEC 2022-C95


    MPEC number:

    Enter an MPEC number in one of the following forms:

    • 1997-B01 (the full form)
    • J97B01 (the packed version of the full form)
    • B01 (the abbreviated form)